Weather History for Saranac Lake, NY

Change the Weather History Date:

Sunday, May 20, 2012

  Actual Average Record
Temperature  
Mean Temperature 64 °F 52 °F  
Max Temperature 87 °F 65 °F 88 °F (1962)
Min Temperature 40 °F 38 °F 24 °F (1981)
Degree Days  
Heating Degree Days 2    
Cooling Degree Days 0 0  
Month to date cooling degree days 0 0  
Year to date cooling degree days 4 0  
Growing Degree Days 14 (Base 50)    
Moisture  
Dew Point 46 °F    
Average Humidity 63    
Maximum Humidity 100    
Minimum Humidity 25    
Precipitation  
Precipitation 0.00 in 0.13 in 1.66 in (1969)
Month to date precipitation 2.90 2.07  
Year to date precipitation 10.82 10.98  
Sea Level Pressure  
Sea Level Pressure 30.21 in    
Wind  
Wind Speed 3 mph (SSW)    
Max Wind Speed 13 mph    
Max Gust Speed 20 mph    
Visibility 10 miles    
Events      
T = Trace of Precipitation, MM = Missing Value Source: NWS Daily Summary

Daily Weather History Graph

Daily Weather History Graph

Search for Another Location

Airport:

Trip Planner

Search our weather history database for the weather conditions in past years. The results will help you decide how hot, cold, wet, or windy it might be!

Date:

Astronomy

May. 20, 2012 Rise Set
Actual Time 5:24 AM EDT 8:23 PM EDT
Civil Twilight 4:49 AM EDT 8:57 PM EDT
Nautical Twilight 4:05 AM EDT 9:41 PM EDT
Astronomical Twilight 3:13 AM EDT 10:34 PM EDT
Moon 5:03 AM EDT 8:20 PM EDT
Length of Visible Light 16h 08m
Length of Day
14h 59m
Waning Crescent, 0% of the Moon is Illuminated
May 20
Waning Crescent
May 20
New
May 28
First Quarter
Jun 4
Full
Jun 11
Last Quarter

Hourly Weather History & Observations

Time (EDT) Temp. Dew Point Humidity Pressure Visibility Wind Dir Wind Speed Gust Speed Precip Events Conditions
12:51 AM 46.9 °F 45.0 °F 93% 30.20 in 10.0 mi Calm Calm - N/A   Clear
1:51 AM 45.0 °F 44.1 °F 97% 30.20 in 8.0 mi Calm Calm - N/A   Clear
2:51 AM 43.0 °F 42.1 °F 97% 30.20 in 9.0 mi Calm Calm - N/A   Clear
3:51 AM 43.0 °F 41.0 °F 93% 30.21 in 9.0 mi Calm Calm - N/A   Clear
4:51 AM 42.1 °F 39.9 °F 92% 30.21 in 8.0 mi Calm Calm - N/A   Clear
5:51 AM 41.0 °F 39.0 °F 93% 30.22 in 8.0 mi Calm Calm - N/A   Clear
6:51 AM 50.0 °F 46.0 °F 86% 30.24 in 10.0 mi Calm Calm - N/A   Clear
7:51 AM 59.0 °F 48.0 °F 67% 30.24 in 10.0 mi SSW 3.5 mph - N/A   Clear
8:51 AM 66.9 °F 48.0 °F 51% 30.25 in 10.0 mi Calm Calm - N/A   Clear
9:51 AM 75.0 °F 48.9 °F 40% 30.25 in 10.0 mi Calm Calm - N/A   Clear
10:51 AM 79.0 °F 46.9 °F 32% 30.25 in 10.0 mi West 4.6 mph - N/A   Clear
11:51 AM 82.0 °F 46.9 °F 29% 30.24 in 10.0 mi Variable 4.6 mph - N/A   Clear
12:51 PM 84.0 °F 46.9 °F 27% 30.23 in 10.0 mi South 6.9 mph - N/A   Clear
1:51 PM 86.0 °F 46.9 °F 26% 30.21 in 10.0 mi Variable 4.6 mph - N/A   Scattered Clouds
2:51 PM 84.9 °F 46.0 °F 26% 30.20 in 10.0 mi SSW 4.6 mph - N/A   Clear
3:51 PM 84.9 °F 46.0 °F 26% 30.19 in 10.0 mi SSE 4.6 mph - N/A   Mostly Cloudy
4:51 PM 84.0 °F 46.9 °F 27% 30.18 in 10.0 mi Calm Calm - N/A   Partly Cloudy
5:51 PM 84.0 °F 50.0 °F 31% 30.17 in 10.0 mi SSE 3.5 mph - N/A   Clear
6:51 PM 81.0 °F 48.9 °F 33% 30.17 in 10.0 mi South 6.9 mph - N/A   Clear
7:51 PM 75.9 °F 48.9 °F 38% 30.17 in 10.0 mi South 6.9 mph - N/A   Clear
8:51 PM 75.0 °F 48.0 °F 38% 30.18 in 10.0 mi South 8.1 mph - N/A   Clear
9:51 PM 69.1 °F 48.9 °F 49% 30.19 in 10.0 mi SW 4.6 mph - N/A   Clear
10:51 PM 63.0 °F 50.0 °F 63% 30.19 in 10.0 mi Calm Calm - N/A   Clear
11:51 PM 57.0 °F 50.0 °F 77% 30.19 in 10.0 mi Calm Calm - N/A   Clear